Time,TemperatureF,DewpointF,PressureIn,WindDirection,WindDirectionDegrees,WindSpeedMPH,WindSpeedGustMPH,Humidity,HourlyPrecipIn,Conditions,Clouds,dailyrainin,SoftwareType,DateUTC
2013-07-23 00:01:00,61.0,54.0,29.74,SW,233,7.0,-999.0,79,-99.99,,,-99.99,,2013-07-23 04:01:00,
2013-07-23 00:11:00,61.0,55.0,29.73,SW,236,8.0,-999.0,82,-99.99,,,-99.99,,2013-07-23 04:11:00,
2013-07-23 00:22:00,61.0,55.0,29.73,SW,236,8.0,-999.0,82,-99.99,,,-99.99,,2013-07-23 04:22:00,
2013-07-23 00:32:00,61.0,56.0,29.73,SSW,197,8.0,-999.0,83,-99.99,,,-99.99,,2013-07-23 04:32:00,
2013-07-23 00:43:00,61.0,56.0,29.72,SSW,209,10.0,-999.0,83,-99.99,,,-99.99,,2013-07-23 04:43:00,
2013-07-23 00:53:00,61.0,56.0,29.72,SSW,209,10.0,-999.0,83,-99.99,,,-99.99,,2013-07-23 04:53:00,
2013-07-23 01:02:00,61.0,55.0,29.72,SW,226,10.0,-999.0,80,-99.99,,,-99.99,,2013-07-23 05:02:00,
2013-07-23 01:11:00,61.0,54.0,29.72,SW,225,10.0,-999.0,78,-99.99,,,-99.99,,2013-07-23 05:11:00,
2013-07-23 01:33:00,61.0,53.0,29.71,SW,233,11.0,-999.0,76,-99.99,,,-99.99,,2013-07-23 05:33:00,
2013-07-23 01:44:00,60.0,53.0,29.70,SW,227,15.0,-999.0,77,-99.99,,,-99.99,,2013-07-23 05:44:00,
2013-07-23 01:52:00,60.0,52.0,29.70,SW,235,13.0,-999.0,75,-99.99,,,-99.99,,2013-07-23 05:52:00,
2013-07-23 02:01:00,60.0,52.0,29.70,SW,235,13.0,-999.0,75,-99.99,,,-99.99,,2013-07-23 06:01:00,
2013-07-23 02:11:00,60.0,52.0,29.70,SW,232,13.0,-999.0,74,-99.99,,,-99.99,,2013-07-23 06:11:00,
2013-07-23 02:33:00,60.0,52.0,29.70,SW,217,14.0,-999.0,74,-99.99,,,-99.99,,2013-07-23 06:33:00,
2013-07-23 02:42:00,60.0,51.0,29.70,SW,227,12.0,-999.0,73,-99.99,,,-99.99,,2013-07-23 06:42:00,
2013-07-23 03:02:00,60.0,51.0,29.70,WSW,239,9.0,-999.0,73,-99.99,,,-99.99,,2013-07-23 07:02:00,
2013-07-23 03:12:00,60.0,51.0,29.70,WSW,246,8.0,-999.0,73,-99.99,,,-99.99,,2013-07-23 07:12:00,
2013-07-23 03:33:00,59.0,51.0,29.70,West,259,9.0,-999.0,74,-99.99,,,-99.99,,2013-07-23 07:33:00,
2013-07-23 03:42:00,59.0,51.0,29.70,West,266,10.0,-999.0,74,-99.99,,,-99.99,,2013-07-23 07:42:00,
2013-07-23 04:01:00,58.0,50.0,29.70,West,275,12.0,-999.0,74,-99.99,,,-99.99,,2013-07-23 08:01:00,
2013-07-23 04:11:00,58.0,50.0,29.70,SW,234,12.0,-999.0,74,-99.99,,,-99.99,,2013-07-23 08:11:00,
2013-07-23 04:22:00,58.0,50.0,29.70,SW,234,12.0,-999.0,74,-99.99,,,-99.99,,2013-07-23 08:22:00,
2013-07-23 04:33:00,59.0,50.0,29.69,SW,236,13.0,-999.0,73,-99.99,,,-99.99,,2013-07-23 08:33:00,
2013-07-23 04:43:00,59.0,50.0,29.69,NW,325,13.0,-999.0,73,-99.99,,,-99.99,,2013-07-23 08:43:00,
2013-07-23 04:52:00,59.0,50.0,29.69,NW,325,13.0,-999.0,73,-99.99,,,-99.99,,2013-07-23 08:52:00,
2013-07-23 05:01:00,59.0,50.0,29.69,WSW,238,12.0,-999.0,73,-99.99,,,-99.99,,2013-07-23 09:01:00,
2013-07-23 05:11:00,59.0,50.0,29.69,SW,236,14.0,-999.0,73,-99.99,,,-99.99,,2013-07-23 09:11:00,
2013-07-23 05:22:00,59.0,50.0,29.69,SW,236,14.0,-999.0,73,-99.99,,,-99.99,,2013-07-23 09:22:00,
2013-07-23 05:33:00,59.0,50.0,29.69,West,259,12.0,-999.0,73,-99.99,,,-99.99,,2013-07-23 09:33:00,
2013-07-23 05:42:00,59.0,50.0,29.70,West,273,12.0,-999.0,73,-99.99,,,-99.99,,2013-07-23 09:42:00,
2013-07-23 06:02:00,59.0,50.0,29.70,West,261,11.0,-999.0,73,-99.99,,,-99.99,,2013-07-23 10:02:00,
2013-07-23 06:11:00,59.0,50.0,29.70,WSW,255,12.0,-999.0,73,-99.99,,,-99.99,,2013-07-23 10:11:00,
2013-07-23 06:32:00,59.0,50.0,29.70,West,278,12.0,-999.0,73,-99.99,,,-99.99,,2013-07-23 10:32:00,
2013-07-23 06:44:00,59.0,50.0,29.70,WSW,248,11.0,-999.0,73,-99.99,,,-99.99,,2013-07-23 10:44:00,
2013-07-23 07:02:00,59.0,51.0,29.71,West,260,10.0,-999.0,74,-99.99,,,-99.99,,2013-07-23 11:02:00,
2013-07-23 07:12:00,59.0,51.0,29.71,West,265,10.0,-999.0,74,-99.99,,,-99.99,,2013-07-23 11:12:00,
2013-07-23 07:22:00,59.0,51.0,29.71,West,265,10.0,-999.0,74,-99.99,,,-99.99,,2013-07-23 11:22:00,
2013-07-23 07:32:00,60.0,52.0,29.71,WSW,242,10.0,-999.0,74,-99.99,,,-99.99,,2013-07-23 11:32:00,
2013-07-23 07:43:00,60.0,52.0,29.71,WSW,244,10.0,-999.0,74,-99.99,,,-99.99,,2013-07-23 11:43:00,
2013-07-23 08:02:00,60.0,52.0,29.71,WSW,247,9.0,-999.0,74,-99.99,,,-99.99,,2013-07-23 12:02:00,
2013-07-23 08:11:00,60.0,52.0,29.72,WSW,245,9.0,-999.0,74,-99.99,,,-99.99,,2013-07-23 12:11:00,
2013-07-23 08:22:00,60.0,52.0,29.72,WSW,245,9.0,-999.0,74,-99.99,,,-99.99,,2013-07-23 12:22:00,
2013-07-23 08:33:00,59.0,51.0,29.72,NW,305,9.0,-999.0,74,-99.99,,,-99.99,,2013-07-23 12:33:00,
2013-07-23 08:43:00,59.0,51.0,29.72,WSW,254,11.0,-999.0,74,-99.99,,,-99.99,,2013-07-23 12:43:00,
2013-07-23 09:02:00,59.0,50.0,29.72,WNW,290,11.0,-999.0,73,-99.99,,,-99.99,,2013-07-23 13:02:00,
2013-07-23 09:11:00,59.0,51.0,29.72,WNW,288,13.0,-999.0,74,-99.99,,,-99.99,,2013-07-23 13:11:00,
2013-07-23 09:32:00,59.0,51.0,29.72,WSW,251,10.0,-999.0,74,-99.99,,,-99.99,,2013-07-23 13:32:00,
2013-07-23 09:43:00,59.0,51.0,29.73,WSW,253,9.0,-999.0,74,-99.99,,,-99.99,,2013-07-23 13:43:00,
2013-07-23 09:52:00,59.0,51.0,29.73,WSW,253,9.0,-999.0,74,-99.99,,,-99.99,,2013-07-23 13:52:00,
2013-07-23 10:02:00,59.0,51.0,29.72,West,267,9.0,-999.0,74,-99.99,,,-99.99,,2013-07-23 14:02:00,
2013-07-23 10:22:00,59.0,51.0,29.72,WSW,250,11.0,-999.0,74,-99.99,,,-99.99,,2013-07-23 14:22:00,
2013-07-23 10:33:00,59.0,51.0,29.72,WSW,252,10.0,-999.0,74,-99.99,,,-99.99,,2013-07-23 14:33:00,
2013-07-23 10:44:00,59.0,51.0,29.72,SW,231,11.0,-999.0,74,-99.99,,,-99.99,,2013-07-23 14:44:00,
2013-07-23 10:53:00,59.0,51.0,29.72,SW,231,11.0,-999.0,74,-99.99,,,-99.99,,2013-07-23 14:53:00,
2013-07-23 11:03:00,60.0,52.0,29.73,WSW,249,11.0,-999.0,74,-99.99,,,-99.99,,2013-07-23 15:03:00,
2013-07-23 11:32:00,60.0,51.0,29.73,SW,236,12.0,-999.0,73,-99.99,,,-99.99,,2013-07-23 15:32:00,
2013-07-23 11:43:00,61.0,52.0,29.73,WSW,243,10.0,-999.0,72,-99.99,,,-99.99,,2013-07-23 15:43:00,
2013-07-23 11:52:00,61.0,52.0,29.73,WSW,243,10.0,-999.0,72,-99.99,,,-99.99,,2013-07-23 15:52:00,
2013-07-23 12:01:00,62.0,56.0,29.73,SW,233,11.0,-999.0,80,-99.99,,,-99.99,,2013-07-23 16:01:00,
2013-07-23 12:12:00,62.0,56.0,29.73,SW,233,11.0,-999.0,80,-99.99,,,-99.99,,2013-07-23 16:12:00,
2013-07-23 12:22:00,62.0,57.0,29.74,WSW,242,12.0,-999.0,83,-99.99,,,-99.99,,2013-07-23 16:22:00,
2013-07-23 12:33:00,61.0,58.0,29.74,WSW,242,12.0,-999.0,90,-99.99,,,-99.99,,2013-07-23 16:33:00,
2013-07-23 13:02:00,65.0,62.0,29.74,SW,232,12.0,-999.0,89,-99.99,,,-99.99,,2013-07-23 17:02:00,
2013-07-23 13:11:00,66.0,62.0,29.74,SW,236,13.0,-999.0,86,-99.99,,,-99.99,,2013-07-23 17:11:00,
2013-07-23 13:32:00,67.0,62.0,29.74,West,259,14.0,-999.0,83,-99.99,,,-99.99,,2013-07-23 17:32:00,
2013-07-23 13:42:00,67.0,61.0,29.74,West,266,15.0,-999.0,82,-99.99,,,-99.99,,2013-07-23 17:42:00,
2013-07-23 14:04:00,68.0,62.0,29.74,WSW,238,13.0,-999.0,82,-99.99,,,-99.99,,2013-07-23 18:04:00,
2013-07-23 14:13:00,66.0,62.0,29.74,WSW,249,9.0,-999.0,86,-99.99,,,-99.99,,2013-07-23 18:13:00,
2013-07-23 14:35:00,67.0,61.0,29.74,WNW,292,14.0,-999.0,82,-99.99,,,-99.99,,2013-07-23 18:35:00,
2013-07-23 14:48:00,69.0,61.0,29.74,WSW,255,12.0,-999.0,76,-99.99,,,-99.99,,2013-07-23 18:48:00,
2013-07-23 15:03:00,69.0,63.0,29.74,WSW,240,11.0,-999.0,80,-99.99,,,-99.99,,2013-07-23 19:03:00,
2013-07-23 15:15:00,69.0,62.0,29.73,West,266,12.0,-999.0,78,-99.99,,,-99.99,,2013-07-23 19:15:00,
2013-07-23 15:47:00,68.0,61.0,29.74,WSW,252,12.0,-999.0,79,-99.99,,,-99.99,,2013-07-23 19:47:00,
2013-07-23 15:54:00,70.0,62.0,29.73,SW,221,10.0,-999.0,75,-99.99,,,-99.99,,2013-07-23 19:54:00,
2013-07-23 16:07:00,70.0,62.0,29.73,SW,221,10.0,-999.0,75,-99.99,,,-99.99,,2013-07-23 20:07:00,
2013-07-23 16:14:00,68.0,62.0,29.73,West,264,8.0,-999.0,80,-99.99,,,-99.99,,2013-07-23 20:14:00,
2013-07-23 16:35:00,69.0,61.0,29.72,WSW,243,10.0,-999.0,77,-99.99,,,-99.99,,2013-07-23 20:35:00,
2013-07-23 16:46:00,68.0,61.0,29.72,SW,221,8.0,-999.0,77,-99.99,,,-99.99,,2013-07-23 20:46:00,
2013-07-23 16:57:00,68.0,61.0,29.72,SW,221,8.0,-999.0,77,-99.99,,,-99.99,,2013-07-23 20:57:00,
2013-07-23 17:05:00,69.0,62.0,29.72,WSW,258,9.0,-999.0,78,-99.99,,,-99.99,,2013-07-23 21:05:00,
2013-07-23 17:15:00,67.0,61.0,29.71,West,263,9.0,-999.0,81,-99.99,,,-99.99,,2013-07-23 21:15:00,
2013-07-23 17:37:00,67.0,61.0,29.71,SW,236,9.0,-999.0,82,-99.99,,,-99.99,,2013-07-23 21:37:00,
2013-07-23 17:47:00,68.0,62.0,29.71,West,261,8.0,-999.0,80,-99.99,,,-99.99,,2013-07-23 21:47:00,
2013-07-23 17:55:00,68.0,62.0,29.71,West,261,8.0,-999.0,80,-99.99,,,-99.99,,2013-07-23 21:55:00,
2013-07-23 18:06:00,67.0,61.0,29.72,West,276,8.0,-999.0,81,-99.99,,,-99.99,,2013-07-23 22:06:00,
2013-07-23 18:13:00,66.0,61.0,29.72,SW,232,8.0,-999.0,84,-99.99,,,-99.99,,2013-07-23 22:13:00,
2013-07-23 18:24:00,66.0,61.0,29.72,SW,232,8.0,-999.0,84,-99.99,,,-99.99,,2013-07-23 22:24:00,
2013-07-23 18:35:00,66.0,61.0,29.71,SW,236,8.0,-999.0,84,-99.99,,,-99.99,,2013-07-23 22:35:00,
2013-07-23 18:47:00,67.0,61.0,29.71,West,277,9.0,-999.0,81,-99.99,,,-99.99,,2013-07-23 22:47:00,
2013-07-23 18:57:00,67.0,61.0,29.71,West,277,9.0,-999.0,81,-99.99,,,-99.99,,2013-07-23 22:57:00,
2013-07-23 19:06:00,66.0,60.0,29.71,WSW,246,9.0,-999.0,82,-99.99,,,-99.99,,2013-07-23 23:06:00,
2013-07-23 19:25:00,64.0,59.0,29.71,WSW,238,10.0,-999.0,85,-99.99,,,-99.99,,2013-07-23 23:25:00,
2013-07-23 19:36:00,64.0,60.0,29.71,WSW,248,10.0,-999.0,87,-99.99,,,-99.99,,2013-07-23 23:36:00,
2013-07-23 19:57:00,63.0,60.0,29.71,SW,233,11.0,-999.0,90,-99.99,,,-99.99,,2013-07-23 23:57:00,
2013-07-23 20:10:00,63.0,60.0,29.71,SW,233,11.0,-999.0,90,-99.99,,,-99.99,,2013-07-24 00:10:00,
2013-07-23 20:34:00,62.0,60.0,29.72,West,275,11.0,-999.0,92,-99.99,,,-99.99,,2013-07-24 00:34:00,
2013-07-23 20:50:00,62.0,60.0,29.73,West,281,10.0,-999.0,93,-99.99,,,-99.99,,2013-07-24 00:50:00,
2013-07-23 20:55:00,62.0,60.0,29.73,West,260,11.0,-999.0,93,-99.99,,,-99.99,,2013-07-24 00:55:00,
2013-07-23 21:04:00,62.0,60.0,29.73,West,260,11.0,-999.0,93,-99.99,,,-99.99,,2013-07-24 01:04:00,
2013-07-23 21:16:00,62.0,60.0,29.73,West,263,10.0,-999.0,92,-99.99,,,-99.99,,2013-07-24 01:16:00,
2013-07-23 21:24:00,62.0,60.0,29.73,West,263,10.0,-999.0,92,-99.99,,,-99.99,,2013-07-24 01:24:00,
2013-07-23 21:34:00,62.0,60.0,29.73,West,263,10.0,-999.0,92,-99.99,,,-99.99,,2013-07-24 01:34:00,
2013-07-23 21:57:00,61.0,58.0,29.72,SW,221,11.0,-999.0,90,-99.99,,,-99.99,,2013-07-24 01:57:00,
2013-07-23 22:18:00,61.0,57.0,29.73,WSW,244,12.0,-999.0,87,-99.99,,,-99.99,,2013-07-24 02:18:00,
2013-07-23 22:39:00,61.0,56.0,29.72,SW,231,13.0,-999.0,83,-99.99,,,-99.99,,2013-07-24 02:39:00,
2013-07-23 22:48:00,61.0,55.0,29.73,SW,219,12.0,-999.0,80,-99.99,,,-99.99,,2013-07-24 02:48:00,
2013-07-23 23:06:00,61.0,54.0,29.75,SW,221,13.0,-999.0,78,-99.99,,,-99.99,,2013-07-24 03:06:00,
2013-07-23 23:24:00,61.0,54.0,29.76,SW,223,13.0,-999.0,79,-99.99,,,-99.99,,2013-07-24 03:24:00,
2013-07-23 23:38:00,61.0,55.0,29.77,WSW,246,10.0,-999.0,80,-99.99,,,-99.99,,2013-07-24 03:38:00,
2013-07-23 23:46:00,62.0,56.0,29.77,WSW,252,8.0,-999.0,82,-99.99,,,-99.99,,2013-07-24 03:46:00,